User: anonymous   Login
Location: Unspecified
(0.0000°N, 0.0000°E)
Time: 21:38:15
(UTC+00:00)
Language:

OV3-3 - Orbit

View from above orbital plane
View from above orbital plane
View from above satellite
View from above satellite

Ground track
Ground track

The orbit data is extracted from the following two-line orbital elements,

1 02389U 66070A   21023.53144067  .00001631  00000-0  88627-4 0  9995
2 02389  81.3854 184.8206 1227928   1.7688 358.7200 12.95363479339912
Epoch (UTC): 23 January 2021 12:45:16
Eccentricity: 0.1227928
inclination: 81.3854°
perigee height: 340 km
apogee height: 2221 km
right ascension of ascending node: 184.8206°
argument of perigee: 1.7688°
revolutions per day: 12.95363479
mean anomaly at epoch: 358.7200°
orbit number at epoch: 33991

The dashed part of the orbit path shows where the satellite is in the earth's shadow,  

DLR